Location: The Jewett Observatory
(46.7288°N, 117.1525°W)
Time: 16:24:18
(UTC-08:00)

Amateur Radio Satellites - All Passes

Search period start: 25 November 2014 15:54
Search period end: 26 November 2014 15:54
Location: The Jewett Observatory, 46.7288°N, 117.1525°W

Satellite Date Start Highest point End Downlink Frequencies (MHz)
Time Altitude Azimuth
RS-15 25 Nov 15:59:11 16:09:58 67° 118° (ESE) 16:20:46 29.354- 29.394
JAS-2 25 Nov 16:16:34 16:24:16 85° 256° (WSW) 16:32:12 435.910
CUTE-I 25 Nov 16:17:34 16:22:18 33° 64° (ENE) 16:27:03 437.470
PHONESAT 2.4 25 Nov 16:24:58 16:28:14 29° 173° (S) 16:31:30 2401.200-2431.200
STARS 25 Nov 16:29:16 16:31:06 13° 302° (WNW) 16:32:57 437.465
MOZHAYETS 4 25 Nov 16:31:40 16:36:09 45° 98° (E) 16:40:37
VERMONT LUNAR 25 Nov 16:37:46 16:41:00 30° 179° (S) 16:44:14 437.305
GONETS M04 25 Nov 16:49:00 16:54:06 16° 52° (NE) 16:59:10
AO-7 25 Nov 17:14:07 17:18:45 16° 274° (W) 17:23:26 29.400- 29.500
Cubesat XI-IV 25 Nov 17:15:11 17:20:34 85° 255° (WSW) 17:25:59 437.490
PRISM 25 Nov 17:52:22 17:56:35 57° 101° (E) 18:00:44 437.425
CUTE-I 25 Nov 17:57:18 18:02:17 39° 263° (W) 18:07:18 437.470
PHONESAT 2.4 25 Nov 18:03:21 18:06:33 27° 190° (S) 18:09:44 2401.200-2431.200
JAS-2 25 Nov 18:05:01 18:10:19 20° 275° (W) 18:15:44 435.910
HO-68 25 Nov 18:05:51 18:11:19 24° 53° (NE) 18:16:48 435.675
PCSat 25 Nov 18:06:52 18:09:15 13° 103° (ESE) 18:11:38 145.827
MOZHAYETS 4 25 Nov 18:09:27 18:13:07 23° 296° (WNW) 18:16:47
CUBESAT XI-V 25 Nov 18:12:04 18:16:26 38° 97° (E) 18:20:45 437.345
RS-15 25 Nov 18:12:29 18:22:55 48° 325° (NW) 18:33:32 29.354- 29.394
BRITE-PL 25 Nov 18:13:05 18:13:59 11° 58° (ENE) 18:14:52 437.365/2234.400
VERMONT LUNAR 25 Nov 18:16:06 18:18:58 22° 196° (SSW) 18:21:49 437.305
STRAND 1 25 Nov 18:34:05 18:39:07 55° 101° (E) 18:44:06 437.568
SEEDS 25 Nov 18:38:36 18:40:44 14° 60° (ENE) 18:42:53 437.485
DOVE 4 25 Nov 18:43:33 18:44:21 10° 58° (ENE) 18:45:09 437.250
GONETS M04 25 Nov 18:44:13 18:53:02 65° 77° (ENE) 19:01:44
AAUSAT CUBESAT 2 25 Nov 18:55:40 18:58:08 16° 61° (ENE) 19:00:37 437.432
AIST 1 25 Nov 18:56:41 19:00:43 37° 91° (E) 19:04:48
Cubesat XI-IV 25 Nov 18:59:18 19:01:28 12° 273° (W) 19:03:38 437.490
CANX-2 25 Nov 19:04:25 19:08:03 29° 67° (ENE) 19:11:44 2200.000
DX 1 25 Nov 19:05:34 19:07:00 12° 57° (ENE) 19:08:26 434.975-435.025
BEESAT 3 25 Nov 19:07:07 19:09:47 17° 111° (ESE) 19:12:29 437.485
COMPASS 1 25 Nov 19:09:45 19:13:04 23° 65° (ENE) 19:16:24 437.405
CINEMA 3 25 Nov 19:19:55 19:22:15 15° 61° (ENE) 19:24:34 145.822/145.860
GOMX 1 25 Nov 19:20:31 19:24:37 31° 68° (ENE) 19:28:31 467.674
BEESAT 2 25 Nov 19:21:44 19:24:53 21° 113° (ESE) 19:28:05 435.950
PRISM 25 Nov 19:29:00 19:31:43 17° 299° (WNW) 19:34:25 437.425
CUTE 1.7 & AOD 2 25 Nov 19:38:31 19:42:39 60° 73° (ENE) 19:46:50 437.475
PHONESAT 2.4 25 Nov 19:42:58 19:44:38 13° 207° (SSW) 19:46:19 2401.200-2431.200
PCSat 25 Nov 19:46:22 19:51:47 82° 121° (ESE) 19:57:15 145.827
BRITE-PL 25 Nov 19:46:52 19:51:50 74° 75° (ENE) 19:56:25 437.365/2234.400
CUBESAT XI-V 25 Nov 19:49:48 19:53:44 27° 295° (WNW) 19:57:38 437.345
HO-68 25 Nov 19:51:03 19:58:15 84° 253° (WSW) 20:05:30 435.675
AIST 2 25 Nov 19:54:43 19:58:07 24° 114° (ESE) 20:01:33 435.215
AISAT 25 Nov 19:59:20 20:01:34 14° 58° (ENE) 20:03:49 437.250
UKube-1 25 Nov 20:03:15 20:07:16 37° 68° (ENE) 20:11:18 .
FUNcube-1 25 Nov 20:06:58 20:10:01 20° 64° (ENE) 20:13:03 145.935
SEEDS 25 Nov 20:11:52 20:16:03 70° 258° (WSW) 20:20:16 437.485
STRAND 1 25 Nov 20:14:01 20:17:57 23° 299° (WNW) 20:21:51 437.568
Oscar 11 25 Nov 20:14:33 20:18:43 51° 71° (ENE) 20:22:55 145.826/435.025
DOVE 4 25 Nov 20:16:54 20:21:30 81° 75° (ENE) 20:25:51 437.250
AAUSAT CUBESAT 2 25 Nov 20:29:17 20:33:23 59° 259° (W) 20:37:32 437.432
RS-15 25 Nov 20:29:22 20:38:43 30° 358° (N) 20:48:16 29.354- 29.394
CUBEBUG 2 25 Nov 20:30:38 20:34:41 44° 71° (ENE) 20:38:40 437.445
UWE-3 25 Nov 20:31:27 20:35:23 39° 70° (ENE) 20:39:17 435.000/436.395/437.385
AIST 1 25 Nov 20:34:57 20:38:30 23° 290° (WNW) 20:42:05
DELFI C3 25 Nov 20:35:37 20:39:40 72° 74° (ENE) 20:43:46 145.870
DX 1 25 Nov 20:38:09 20:42:33 86° 74° (ENE) 20:46:57 434.975-435.025
CANX-2 25 Nov 20:40:19 20:43:59 29° 265° (W) 20:47:41 2200.000
GONETS M04 25 Nov 20:41:49 20:49:14 32° 278° (W) 20:56:36
50 SAT 25 Nov 20:42:47 20:46:01 24° 66° (ENE) 20:49:15 437.505
BEESAT 3 25 Nov 20:43:30 20:47:35 60° 310° (NW) 20:51:44 437.485
COMPASS 1 25 Nov 20:44:47 20:48:38 36° 263° (W) 20:52:32 437.405
HUMSAT D 25 Nov 20:51:57 20:55:42 34° 69° (ENE) 20:59:27 437.325/437.525
CINEMA 3 25 Nov 20:54:41 20:59:02 67° 258° (WSW) 21:03:16 145.822/145.860
GOMX 1 25 Nov 20:58:31 21:02:44 31° 264° (W) 21:06:44 467.674
BEESAT 2 25 Nov 20:58:52 21:02:54 48° 312° (NW) 21:06:59 435.950
ESTCUBE 1 25 Nov 21:05:53 21:09:29 24° 64° (ENE) 21:13:06 437.505/2401.250
ZACube-1 25 Nov 21:06:42 21:10:54 80° 75° (ENE) 21:15:05 437.345
VELOX 1 25 Nov 21:07:04 21:11:27 56° 71° (ENE) 21:15:50 145.980
CUTE 1.7 & AOD 2 25 Nov 21:16:43 21:19:00 14° 271° (W) 21:21:18 437.475
BRITE-PL 25 Nov 21:28:12 21:30:46 14° 270° (W) 21:33:15 437.365/2234.400
TISAT 1 25 Nov 21:29:54 21:31:01 11° 57° (ENE) 21:32:09 437.305
PCSat 25 Nov 21:31:36 21:35:52 23° 322° (NW) 21:40:09 145.827
AIST 2 25 Nov 21:32:24 21:36:30 46° 313° (NW) 21:40:41 435.215
AISAT 25 Nov 21:33:07 21:37:37 80° 256° (WSW) 21:42:07 437.250
NANOSAT C BR1 25 Nov 21:38:35 21:40:37 13° 89° (E) 21:42:39 145.865
SPROUT 25 Nov 21:38:38 21:40:13 12° 58° (ENE) 21:41:49 437.525
UKube-1 25 Nov 21:40:01 21:43:33 24° 266° (W) 21:47:06 .
FUNcube-1 25 Nov 21:42:07 21:46:07 43° 261° (W) 21:50:07 145.935
HO-68 25 Nov 21:42:37 21:47:00 17° 273° (W) 21:51:25 435.675
TIGRISAT 25 Nov 21:44:03 21:47:33 23° 94° (E) 21:51:05 435.000
CUBEBUG 1 25 Nov 21:46:48 21:51:08 53° 71° (ENE) 21:55:28 437.445
QB50P1 25 Nov 21:47:53 21:50:37 17° 91° (E) 21:53:21 145.935-145.965
Oscar 11 25 Nov 21:52:21 21:55:12 17° 269° (W) 21:58:04 145.826/435.025
UNISAT 6 25 Nov 21:57:18 22:01:15 31° 96° (E) 22:05:15 437.425
DOVE 4 25 Nov 21:58:25 21:59:47 11° 272° (W) 22:01:08 437.250
BUGSAT 1 25 Nov 21:59:24 22:02:10 17° 92° (E) 22:04:55 437.445
CUBEBUG 2 25 Nov 22:08:39 22:11:38 19° 268° (W) 22:14:36 437.445
UWE-3 25 Nov 22:08:55 22:12:07 21° 267° (W) 22:15:17 435.000/436.395/437.385
POPSAT HIP 1 25 Nov 22:11:57 22:15:39 29° 96° (E) 22:19:19 437.405
DELFI C3 25 Nov 22:14:13 22:15:29 11° 272° (W) 22:16:45 145.870
50 SAT 25 Nov 22:17:32 22:21:12 33° 263° (W) 22:24:53 437.505
DX 1 25 Nov 22:18:32 22:19:24 11° 272° (W) 22:20:16 434.975-435.025
BEESAT 3 25 Nov 22:24:32 22:26:41 14° 331° (NNW) 22:28:50 437.485
ANTELSAT 25 Nov 22:25:45 22:30:09 59° 101° (E) 22:34:37 437.575/2403.000
HUMSAT D 25 Nov 22:28:19 22:31:37 23° 266° (W) 22:34:55 437.325/437.525
BEESAT 2 25 Nov 22:40:30 22:42:12 12° 334° (NNW) 22:43:55 435.950
ESTCUBE 1 25 Nov 22:41:47 22:46:07 43° 262° (W) 22:50:30 437.505/2401.250
RS-15 25 Nov 22:44:15 22:54:44 44° 32° (NNE) 23:05:34 29.354- 29.394
POLYITAN 1 25 Nov 22:45:05 22:49:19 66° 102° (ESE) 22:53:31 437.675
VELOX 1 25 Nov 22:45:28 22:48:23 17° 269° (W) 22:51:19 145.980
QB50P2 25 Nov 22:47:09 22:51:24 69° 102° (ESE) 22:55:36 145.880/145.840
ZACube-1 25 Nov 22:47:19 22:47:51 10° 272° (W) 22:48:24 437.345
BEESAT 25 Nov 22:52:34 22:55:15 15° 58° (ENE) 22:57:56 436.000
DUCHIFAT 1 25 Nov 22:53:18 22:57:32 79° 104° (ESE) 23:01:45 145.980
TISAT 1 25 Nov 23:01:54 23:06:11 86° 75° (ENE) 23:10:28 437.305
AUBIESAT-1 25 Nov 23:02:36 23:06:16 30° 59° (ENE) 23:10:12 437.475
CUSAT 1 25 Nov 23:06:23 23:10:43 55° 77° (ENE) 23:16:32 437.405
M-CUBED/EXP-1 PRIME 25 Nov 23:07:34 23:11:22 35° 61° (ENE) 23:15:30 437.505
SPROUT 25 Nov 23:11:20 23:15:40 88° 256° (WSW) 23:20:01 437.525
NANOSAT C BR1 25 Nov 23:12:46 23:16:57 65° 287° (WNW) 23:21:07 145.865
AIST 2 25 Nov 23:14:29 23:16:13 12° 335° (NNW) 23:17:58 435.215
TIGRISAT 25 Nov 23:20:19 23:24:27 41° 290° (WNW) 23:28:40 435.000
QB50P1 25 Nov 23:22:43 23:26:50 50° 289° (WNW) 23:30:54 145.935-145.965
CUBEBUG 1 25 Nov 23:24:49 23:27:50 18° 269° (W) 23:30:50 437.445
DANDE 25 Nov 23:31:46 23:36:01 79° 79° (E) 23:41:50 436.750
MaSat-1 25 Nov 23:31:53 23:33:57 27° 56° (NE) 23:36:02 437.345
BUGSAT 1 25 Nov 23:34:01 23:37:56 45° 289° (WNW) 23:41:48 437.445
UNISAT 6 25 Nov 23:34:09 23:38:01 30° 293° (WNW) 23:41:57 437.425
ISS 25 Nov 23:39:48 23:43:00 50° 147° (SSE) 23:46:12 145.825
ITUPSAT 1 25 Nov 23:45:55 23:50:25 41° 68° (ENE) 23:54:57 437.325
POPSAT HIP 1 25 Nov 23:47:52 23:51:31 29° 293° (WNW) 23:55:10 437.405
SWISSCUBE 25 Nov 23:56:40 00:01:22 56° 71° (ENE) 00:06:06 437.505
ANTELSAT 26 Nov 00:03:39 00:06:34 17° 298° (WNW) 00:09:30 437.575/2403.000
YUBILEINY 26 Nov 00:08:48 00:11:56 12° 70° (ENE) 00:15:05 435.215
STARS 26 Nov 00:17:01 00:19:18 14° 59° (ENE) 00:21:34 437.465
Oscar 19 26 Nov 00:18:13 00:21:46 18° 90° (E) 00:25:19 437.125/150
POLYITAN 1 26 Nov 00:22:26 00:24:47 15° 300° (WNW) 00:27:07 437.675
QB50P2 26 Nov 00:24:35 00:26:48 14° 300° (WNW) 00:29:01 145.880/145.840
BEESAT 26 Nov 00:27:40 00:32:28 82° 256° (WSW) 00:37:18 436.000
DUCHIFAT 1 26 Nov 00:31:02 00:32:49 13° 301° (WNW) 00:34:37 145.980
AUBIESAT-1 26 Nov 00:37:29 00:41:12 32° 260° (W) 00:45:14 437.475
M-CUBED/EXP-1 PRIME 26 Nov 00:43:01 00:46:30 27° 261° (W) 00:50:17 437.505
CUSAT 1 26 Nov 00:50:27 00:53:46 19° 267° (W) 00:57:44 437.405
KKS-1 26 Nov 00:55:13 00:59:26 43° 69° (ENE) 01:03:40 437.445
RS-15 26 Nov 00:56:59 01:08:08 77° 239° (WSW) 01:19:48 29.354- 29.394
ITAMSAT 1 26 Nov 01:10:57 01:14:55 22° 92° (E) 01:18:51 435.822/435.867
ISS 26 Nov 01:16:33 01:19:42 43° 346° (NNW) 01:22:53 145.825
DANDE 26 Nov 01:17:23 01:19:22 13° 270° (W) 01:21:34 436.750
ITUPSAT 1 26 Nov 01:24:27 01:28:27 26° 266° (W) 01:32:30 437.325
SWISSCUBE 26 Nov 01:36:12 01:39:35 19° 269° (W) 01:43:00 437.505
Gurwin Techsat 1B 26 Nov 01:42:47 01:47:10 25° 93° (E) 01:51:31 435.225
STARS 26 Nov 01:50:49 01:55:13 76° 257° (WSW) 01:59:38 437.465
Oscar 19 26 Nov 01:56:27 02:01:34 65° 288° (WNW) 02:06:41 437.125/150
YUBILEINY 26 Nov 01:58:12 02:06:48 61° 92° (E) 02:15:23 435.215
HORYU 2 26 Nov 02:01:52 02:04:29 15° 90° (E) 02:07:06 437.375
BEESAT 2 26 Nov 02:02:09 02:02:56 10° 23° (NNE) 02:03:43 435.950
BEESAT 26 Nov 02:10:46 02:11:05 10° 274° (W) 02:11:23 436.000
KKS-1 26 Nov 02:32:53 02:36:17 21° 267° (W) 02:39:43 437.445
AIST 2 26 Nov 02:36:12 02:37:41 11° 24° (NNE) 02:39:09 435.215
PCSat 26 Nov 02:48:38 02:53:10 26° 40° (NE) 02:57:41 145.827
ITAMSAT 1 26 Nov 02:49:41 02:54:45 55° 290° (WNW) 02:59:47 435.822/435.867
ISS 26 Nov 02:53:45 02:56:49 34° 6° (N) 02:59:53 145.825
SO-50 26 Nov 02:55:45 02:59:39 29° 115° (ESE) 03:03:39 436.795
RS-15 26 Nov 03:11:07 03:18:41 21° 261° (W) 03:26:29 29.354- 29.394
AO-7 26 Nov 03:14:53 03:22:14 33° 95° (E) 03:29:32 29.400- 29.500
Gurwin Techsat 1B 26 Nov 03:22:16 03:27:23 49° 291° (WNW) 03:32:27 435.225
BEESAT 3 26 Nov 03:23:02 03:26:48 31° 42° (NE) 03:30:32 437.485
JAS-2 26 Nov 03:26:48 03:30:00 13° 80° (E) 03:33:02 435.910
MOZHAYETS 4 26 Nov 03:36:25 03:40:55 59° 72° (ENE) 03:45:29
HORYU 2 26 Nov 03:37:08 03:41:35 63° 288° (WNW) 03:46:02 437.375
BEESAT 2 26 Nov 03:38:28 03:42:25 37° 45° (NE) 03:46:20 435.950
Oscar 19 26 Nov 03:38:37 03:39:56 11° 307° (NW) 03:41:15 437.125/150
YUBILEINY 26 Nov 03:56:17 04:04:07 35° 294° (WNW) 04:11:59 435.215
AIST 2 26 Nov 04:13:20 04:17:28 41° 46° (NE) 04:21:32 435.215
STRAND 1 26 Nov 04:16:07 04:19:23 17° 58° (ENE) 04:22:39 437.568
ISS 26 Nov 04:30:26 04:33:45 83° 26° (NNE) 04:37:03 145.825
PCSat 26 Nov 04:31:40 04:37:05 69° 241° (WSW) 04:42:27 145.827
SO-50 26 Nov 04:35:40 04:40:02 43° 315° (NW) 04:44:33 436.795
PRISM 26 Nov 04:45:54 04:50:04 63° 73° (ENE) 04:54:17 437.425
BEESAT 3 26 Nov 05:01:13 05:05:06 37° 242° (WSW) 05:08:56 437.485
AIST 1 26 Nov 05:02:11 05:04:29 14° 65° (ENE) 05:06:45
AO-7 26 Nov 05:07:17 05:15:32 65° 295° (WNW) 05:23:45 29.400- 29.500
JAS-2 26 Nov 05:09:16 05:16:32 73° 102° (ESE) 05:22:53 435.910
MOZHAYETS 4 26 Nov 05:15:35 05:18:33 17° 270° (W) 05:21:33
BEESAT 2 26 Nov 05:16:57 05:20:38 29° 244° (WSW) 05:24:16 435.950
CUBESAT XI-V 26 Nov 05:18:11 05:22:45 51° 71° (ENE) 05:27:21 437.345
Cubesat XI-IV 26 Nov 05:30:01 05:34:44 31° 95° (E) 05:39:23 437.490
O/OREOS (USA 219) 26 Nov 05:47:05 05:51:34 75° 113° (ESE) 05:56:03 437.305
AIST 2 26 Nov 05:52:18 05:55:56 27° 245° (WSW) 05:59:32 435.215
STRAND 1 26 Nov 05:52:49 05:57:58 78° 256° (WSW) 06:03:09 437.568
GONETS M04 26 Nov 05:57:50 06:01:56 14° 71° (ENE) 06:06:02
ISS 26 Nov 06:07:43 06:10:02 18° 223° (SW) 06:12:21 145.825
CUTE-I 26 Nov 06:11:01 06:16:21 68° 102° (ESE) 06:21:37 437.470
PCSat 26 Nov 06:18:50 06:19:28 10° 259° (W) 06:20:06 145.827
SO-50 26 Nov 06:19:33 06:21:50 13° 338° (NNW) 06:24:09 436.795
PRISM 26 Nov 06:23:54 06:26:03 14° 270° (W) 06:28:13 437.425
AIST 1 26 Nov 06:38:18 06:42:40 67° 264° (W) 06:46:59
JAS-2 26 Nov 06:55:04 07:00:49 26° 304° (NW) 07:06:05 435.910
CUBESAT XI-V 26 Nov 06:57:01 07:00:30 20° 269° (W) 07:03:59 437.345
AO-7 26 Nov 07:01:29 07:06:48 19° 318° (NW) 07:12:07 29.400- 29.500
Cubesat XI-IV 26 Nov 07:09:57 07:14:55 41° 293° (WNW) 07:19:51 437.490
HO-68 26 Nov 07:17:31 07:21:35 16° 86° (E) 07:25:38 435.675
O/OREOS (USA 219) 26 Nov 07:28:40 07:31:31 16° 313° (NW) 07:34:23 437.305
STRAND 1 26 Nov 07:36:58 07:37:59 11° 274° (W) 07:39:01 437.568
GONETS M04 26 Nov 07:48:15 07:56:56 67° 93° (E) 08:05:41
BRITE-PL 26 Nov 07:50:03 07:52:32 15° 91° (E) 07:55:01 437.365/2234.400
CUTE-I 26 Nov 07:52:05 07:55:55 21° 301° (WNW) 07:59:43 437.470
SEEDS 26 Nov 07:54:56 07:57:41 17° 91° (E) 08:00:27 437.485
AAUSAT CUBESAT 2 26 Nov 08:10:59 08:13:57 18° 92° (E) 08:16:55 437.432
DOVE 4 26 Nov 08:14:20 08:16:52 16° 91° (E) 08:19:25 437.250
DUCHIFAT 1 26 Nov 08:16:53 08:17:55 11° 57° (ENE) 08:18:57 145.980
CANX-2 26 Nov 08:22:30 08:26:32 39° 97° (E) 08:30:34 2200.000
COMPASS 1 26 Nov 08:25:57 08:29:41 29° 95° (E) 08:33:24 437.405
DX 1 26 Nov 08:26:01 08:27:39 12° 89° (E) 08:29:17 434.975-435.025
NANOSAT C BR1 26 Nov 08:34:32 08:37:11 16° 61° (ENE) 08:39:49 145.865
QB50P1 26 Nov 08:43:57 08:47:02 20° 63° (ENE) 08:50:07 145.935-145.965
TIGRISAT 26 Nov 08:46:08 08:49:45 28° 66° (ENE) 08:53:22 435.000
CINEMA 3 26 Nov 08:47:15 08:50:31 21° 93° (E) 08:53:50 145.822/145.860
BUGSAT 1 26 Nov 08:52:40 08:55:48 20° 64° (ENE) 08:58:56 437.445
ZACube-1 26 Nov 08:54:30 08:56:17 12° 89° (E) 08:58:05 437.345
GOMX 1 26 Nov 08:56:46 09:00:51 56° 100° (E) 09:05:01 467.674
CUTE 1.7 & AOD 2 26 Nov 08:56:58 09:01:17 82° 103° (ESE) 09:05:35 437.475
UNISAT 6 26 Nov 08:59:36 09:03:32 38° 69° (ENE) 09:07:30 437.425
HO-68 26 Nov 09:03:11 09:10:25 80° 106° (ESE) 09:17:35 435.675
POPSAT HIP 1 26 Nov 09:07:55 09:11:44 33° 68° (ENE) 09:15:33 437.405
AISAT 26 Nov 09:22:52 09:25:37 16° 91° (E) 09:28:22 437.250
UKube-1 26 Nov 09:24:11 09:28:23 45° 99° (E) 09:32:32 .
BRITE-PL 26 Nov 09:27:24 09:31:26 50° 288° (WNW) 09:35:28 437.365/2234.400
FUNcube-1 26 Nov 09:27:59 09:31:36 27° 95° (E) 09:35:16 145.935
ANTELSAT 26 Nov 09:28:02 09:32:18 75° 74° (ENE) 09:36:35 437.575/2403.000
SEEDS 26 Nov 09:29:41 09:33:51 52° 288° (WNW) 09:38:00 437.485
Oscar 11 26 Nov 09:35:05 09:39:27 71° 102° (ESE) 09:43:47 145.826/435.025
POLYITAN 1 26 Nov 09:41:13 09:45:28 73° 74° (ENE) 09:49:43 437.675
QB50P2 26 Nov 09:43:04 09:47:19 77° 75° (ENE) 09:51:35 145.880/145.840
SO-50 26 Nov 09:44:04 09:47:12 17° 28° (NNE) 09:50:20 436.795
AAUSAT CUBESAT 2 26 Nov 09:45:49 09:49:53 46° 289° (WNW) 09:53:56 437.432
GONETS M04 26 Nov 09:46:49 09:54:28 32° 296° (WNW) 10:02:12
DUCHIFAT 1 26 Nov 09:48:51 09:53:06 86° 75° (ENE) 09:57:22 145.980
DELFI C3 26 Nov 09:48:56 09:53:06 87° 103° (ESE) 09:57:15 145.870
DOVE 4 26 Nov 09:50:56 09:54:59 52° 288° (WNW) 09:59:07 437.250
UWE-3 26 Nov 09:54:42 09:58:54 60° 101° (E) 10:03:10 435.000/436.395/437.385
CUBEBUG 2 26 Nov 09:55:17 09:59:30 70° 102° (ESE) 10:03:49 437.445
50 SAT 26 Nov 09:55:38 09:59:07 27° 95° (E) 10:02:35 437.505
CANX-2 26 Nov 09:58:54 10:02:17 23° 295° (WNW) 10:05:41 2200.000
DX 1 26 Nov 10:00:05 10:04:27 76° 286° (WNW) 10:08:46 434.975-435.025
COMPASS 1 26 Nov 10:01:42 10:05:23 29° 293° (WNW) 10:09:05 437.405
NANOSAT C BR1 26 Nov 10:08:26 10:12:38 59° 259° (W) 10:16:51 145.865
HUMSAT D 26 Nov 10:09:10 10:13:11 45° 99° (E) 10:17:12 437.325/437.525
QB50P1 26 Nov 10:18:33 10:22:39 46° 261° (W) 10:26:46 145.935-145.965
TIGRISAT 26 Nov 10:22:41 10:26:27 31° 264° (W) 10:30:15 435.000
CINEMA 3 26 Nov 10:23:59 10:27:53 39° 290° (WNW) 10:31:53 145.822/145.860
BUGSAT 1 26 Nov 10:26:57 10:31:02 44° 261° (W) 10:35:06 437.445
ZACube-1 26 Nov 10:28:55 10:33:08 70° 286° (WNW) 10:37:25 437.345
VELOX 1 26 Nov 10:31:38 10:36:05 77° 103° (ESE) 10:40:30 145.980
ESTCUBE 1 26 Nov 10:31:56 10:36:01 32° 96° (E) 10:40:04 437.505/2401.250
CUTE 1.7 & AOD 2 26 Nov 10:34:49 10:36:36 12° 301° (WNW) 10:38:23 437.475
GOMX 1 26 Nov 10:36:07 10:38:38 16° 298° (WNW) 10:41:09 467.674
UNISAT 6 26 Nov 10:37:08 10:40:29 22° 267° (W) 10:43:52 437.425
POPSAT HIP 1 26 Nov 10:44:07 10:47:41 26° 265° (W) 10:51:16 437.405
TISAT 1 26 Nov 10:46:41 10:47:58 11° 88° (E) 10:49:15 437.305
HO-68 26 Nov 10:51:50 10:57:25 25° 306° (NW) 11:02:59 435.675
SPROUT 26 Nov 10:57:07 10:59:15 13° 89° (E) 11:01:23 437.525
AISAT 26 Nov 10:58:17 11:02:39 57° 288° (WNW) 11:06:58 437.250
UKube-1 26 Nov 11:01:01 11:04:16 21° 297° (WNW) 11:07:30 .
FUNcube-1 26 Nov 11:04:15 11:07:59 31° 292° (WNW) 11:11:46 145.935
ANTELSAT 26 Nov 11:08:13 11:09:40 11° 272° (W) 11:11:06 437.575/2403.000
CUBEBUG 1 26 Nov 11:09:26 11:13:49 73° 102° (ESE) 11:18:09 437.445
Oscar 11 26 Nov 11:12:44 11:15:05 15° 300° (WNW) 11:17:27 145.826/435.025
POLYITAN 1 26 Nov 11:20:21 11:21:56 12° 272° (W) 11:23:31 437.675
QB50P2 26 Nov 11:22:26 11:23:47 11° 272° (W) 11:25:08 145.880/145.840
SO-50 26 Nov 11:23:52 11:28:42 62° 49° (NE) 11:33:33 436.795
DELFI C3 26 Nov 11:26:31 11:27:46 11° 301° (WNW) 11:29:02 145.870
50 SAT 26 Nov 11:30:53 11:34:26 29° 292° (WNW) 11:37:58 437.505
UWE-3 26 Nov 11:32:30 11:35:03 16° 298° (WNW) 11:37:37 435.000/436.395/437.385
CUBEBUG 2 26 Nov 11:33:34 11:35:44 14° 299° (WNW) 11:37:55 437.445
Oscar 19 26 Nov 11:37:36 11:42:13 35° 66° (ENE) 11:46:51 437.125/150
HUMSAT D 26 Nov 11:45:43 11:48:43 20° 296° (WNW) 11:51:44 437.325/437.525
SWISSCUBE 26 Nov 11:56:39 11:58:19 12° 87° (E) 11:59:58 437.505
YUBILEINY 26 Nov 12:04:55 12:12:46 35° 66° (ENE) 12:20:32 435.215
ESTCUBE 1 26 Nov 12:08:53 12:12:51 30° 294° (WNW) 12:16:48 437.505/2401.250
VELOX 1 26 Nov 12:09:49 12:12:06 14° 302° (WNW) 12:14:22 145.980
AUBIESAT-1 26 Nov 12:17:40 12:21:04 19° 95° (E) 12:24:25 437.475
TISAT 1 26 Nov 12:20:08 12:24:21 76° 286° (WNW) 12:28:32 437.305
M-CUBED/EXP-1 PRIME 26 Nov 12:22:56 12:26:48 22° 97° (E) 12:30:35 437.505
CUSAT 1 26 Nov 12:24:12 12:26:41 37° 97° (E) 12:29:09 437.405
BEESAT 26 Nov 12:26:01 12:29:40 21° 92° (E) 12:33:17 436.000
AO-7 26 Nov 12:28:57 12:33:41 17° 40° (NE) 12:38:26 29.400- 29.500
ITAMSAT 1 26 Nov 12:31:26 12:36:21 44° 68° (ENE) 12:41:18 435.822/435.867
SPROUT 26 Nov 12:31:32 12:35:48 65° 287° (WNW) 12:40:02 437.525
CUBEBUG 1 26 Nov 12:47:19 12:49:38 14° 301° (WNW) 12:51:57 437.445
DANDE 26 Nov 12:52:14 12:54:56 88° 101° (ESE) 12:57:33 436.750
HORYU 2 26 Nov 13:03:15 13:06:34 21° 62° (ENE) 13:09:54 437.375
SO-50 26 Nov 13:05:12 13:08:52 22° 248° (WSW) 13:12:33 436.795
Gurwin Techsat 1B 26 Nov 13:06:29 13:11:37 52° 69° (ENE) 13:16:47 435.225
Oscar 19 26 Nov 13:16:58 13:21:33 33° 264° (W) 13:26:11 437.125/150
ITUPSAT 1 26 Nov 13:21:17 13:26:06 67° 102° (ESE) 13:30:52 437.325
SWISSCUBE 26 Nov 13:32:02 13:36:52 89° 285° (WNW) 13:41:40 437.505
STARS 26 Nov 13:39:17 13:42:05 16° 91° (E) 13:44:53 437.465
JAS-2 26 Nov 13:42:59 13:46:20 13° 45° (NE) 13:49:41 435.910
AUBIESAT-1 26 Nov 13:51:34 13:56:27 65° 293° (WNW) 14:01:14 437.475
M-CUBED/EXP-1 PRIME 26 Nov 13:57:16 14:02:06 54° 295° (WNW) 14:06:50 437.505
YUBILEINY 26 Nov 14:01:33 14:10:03 60° 269° (W) 14:18:29 435.215
BEESAT 26 Nov 14:03:09 14:07:48 50° 290° (WNW) 14:12:24 436.000
ITAMSAT 1 26 Nov 14:11:36 14:16:01 28° 266° (W) 14:20:27 435.822/435.867
PHONESAT 2.4 26 Nov 14:15:16 14:17:22 15° 155° (SSE) 14:19:28 2401.200-2431.200
O/OREOS (USA 219) 26 Nov 14:15:17 14:19:14 29° 55° (NE) 14:23:10 437.305
AO-7 26 Nov 14:16:44 14:24:45 57° 63° (ENE) 14:32:50 29.400- 29.500
KKS-1 26 Nov 14:20:01 14:24:26 60° 101° (ESE) 14:28:49 437.445
VERMONT LUNAR 26 Nov 14:23:17 14:25:52 19° 160° (SSE) 14:28:28 437.305
MaSat-1 26 Nov 14:36:35 14:39:22 41° 116° (ESE) 14:41:55 437.345
HORYU 2 26 Nov 14:38:41 14:42:57 47° 260° (W) 14:47:16 437.375
Gurwin Techsat 1B 26 Nov 14:47:40 14:51:53 24° 268° (W) 14:56:08 435.225
ITUPSAT 1 26 Nov 15:00:19 15:03:30 18° 301° (WNW) 15:06:39 437.325
SWISSCUBE 26 Nov 15:11:43 15:14:01 14° 304° (WNW) 15:16:18 437.505
STARS 26 Nov 15:14:37 15:18:56 55° 288° (WNW) 15:23:13 437.465
Cubesat XI-IV 26 Nov 15:19:03 15:20:58 12° 52° (NE) 15:22:53 437.490
JAS-2 26 Nov 15:22:15 15:29:36 49° 65° (ENE) 15:37:02 435.910
RS-15 26 Nov 15:23:44 15:34:09 53° 114° (ESE) 15:44:35 29.354- 29.394
AUBIESAT-1 26 Nov 15:28:43 15:30:32 12° 311° (NW) 15:32:21 437.475
MOZHAYETS 4 26 Nov 15:31:02 15:32:43 12° 87° (E) 15:34:23
M-CUBED/EXP-1 PRIME 26 Nov 15:35:30 15:36:07 10° 313° (NW) 15:36:43 437.505
